Regional Weather Roundup
Issued by NWS

Home | Current Version | Previous Version | Text Only | Print | Product List | Glossary On
Versions: 1 2 3 4 5 6 7 8 9 10 11 12 13 14 15 16 17 18 19 20 21 22 23 24 25 26 27 28 29 30 31 32 33 34 35 36 37 38 39 40 41 42 43 44 45 46 47 48 49 50
000
ASUS44 KEWX 310902
RWRTX
SOUTH TEXAS REGIONAL WEATHER ROUNDUP
NATIONAL WEATHER SERVICE AUSTIN/SAN ANTONIO TX
400 AM CDT SUN AUG 31 2014

NOTE: "FAIR" INDICATED FEW OR NO CLOUDS BELOW 12,000 FEET WITH NO
SIGNIFICANT WEATHER AND/OR OBSTRUCTIONS TO VISIBILITY.

* - THESE STATIONS ARE NOT NWS OR FAA STATIONS...AND ARE NOT SUBJECT
    TO NWS AND FAA QUALITY CONTROL.

TXZ171-172-183>190-311000-
TEXAS HILL COUNTRY AND EDWARDS PLATEAU

CITY           SKY/WX    TMP DP  RH WIND       PRES   REMARKS
JUNCTION       CLEAR     75  67  76 SE6       29.98S
*LLANO         CLEAR     75  70  83 CALM      29.99S
BURNET         PTCLDY    76  71  85 S6        29.99F
*HORSESHOE BAY CLEAR     76  69  78 S3        29.96F
*KERRVILLE     CLOUDY    74  69  86 S9        30.00S
*FREDERICKSBRG CLEAR     73  66  76 S7        30.00S
*ROCKSPRINGS   CLEAR     73  70  88 SE10      30.03F
*BOERNE STAGE  CLOUDY    75  68  78 S6        30.00F
*CASTROVILLE   PTCLDY    77  70  79 SE5       29.98S
HONDO          PTCLDY    76  71  85 SE3       29.98F
*UVALDE        CLOUDY    78  72  82 SE9       29.96F
DEL RIO        CLEAR     82  69  64 SE7       29.92F
LAUGHLIN AFB   NOT AVBL
CARRIZO SPRGS  MOCLDY    77  72  83 SE6       29.92S
$$

TXZ173-191>194-202-209-217>225-228-311000-
CENTRAL AND SOUTH CENTRAL TEXAS

CITY           SKY/WX    TMP DP  RH WIND       PRES   REMARKS
GEORGETOWN     MOCLDY    77  72  83 S13       29.98S
AUSTIN/BERGSTM PTCLDY    74  71  91 S3        29.95F
AUSTIN/MABRY   PTCLDY    76  72  87 VRB3      29.96F
*AUSTIN/EXEC   CLOUDY    73  73 100 S6        29.96F
*LAGO VISTA    CLOUDY    77  70  79 S10       29.98F
SAN MARCOS     PTCLDY    75  68  78 SW6       29.98F
NEW BRAUNFELS  CLOUDY    77  73  87 SW5       29.95F
RANDOLPH AFB   MOCLDY    77  72  84 S6        29.96F
PT SAN ANTONIO PTCLDY    76  72  87 S6        29.94F
SAN ANTONIO    PTCLDY    78  72  81 S7        29.96F
STINSON FIELD  MOCLDY    76  73  91 SE3       29.94F
*PLEASANTON    CLEAR     75  72  90 CALM      29.94F
*LA GRANGE     PTCLDY    75  73  95 CALM      29.93F
*GIDDINGS      PTCLDY    74  71  91 CALM      29.99F
*GONZALES      CLOUDY    77  75  95 CALM      29.95S
$$

TXZ163>164-176>182-195>201-210>213-226-227-235-311000-
SOUTHEAST TEXAS

CITY           SKY/WX    TMP DP  RH WIND       PRES   REMARKS
COLLEGE STN    PTCLDY    74  71  91 SE6       29.95F
*BRYAN         PTCLDY    74  71  92 S3        29.95F
*CALDWELL      PTCLDY    73  72  94 CALM      29.98F
*CROCKETT      NOT AVBL
*BRENHAM       PTCLDY    75  73  93 CALM      29.96F
HUNTSVILLE     MOCLDY    76  72  87 S3        29.96F
CONROE         MOCLDY    72  70  93 CALM      29.97S
HOUSTON BUSH   PTCLDY    75  73  94 CALM      29.95F
HOUSTON HOBBY  MOCLDY    78  74  87 CALM      29.95R
*HOUSTON SW AP CLOUDY   N/A N/A N/A CALM      29.96R
PEARLAND       PTCLDY    77  74  90 CALM      29.96S
HOUSTON HOOKS  PTCLDY    74  72  93 CALM      29.96S
ELLINGTON FLD  PTCLDY    77  73  88 E2        29.96S
SUGAR LAND     PTCLDY    76  74  93 CALM      29.95S
*HOUSTON EXEC  MOCLDY    75  75 100 CALM      29.97S
*CLEVELAND MUN PTCLDY    73  73  98 CALM      29.97S
*WHARTON       PTCLDY    73  72  96 CALM      29.96S
$$

TXZ214>216-236>238-311000-
THE UPPER TEXAS COAST

CITY           SKY/WX    TMP DP  RH WIND       PRES   REMARKS
*ORANGE        MOCLDY    76  76 100 CALM      29.99R
PORT ARTHUR    PTCLDY    75  73  93 CALM      29.96S
GALVESTON      PTCLDY    82  76  81 S15       29.96S
ANGLETON       PTCLDY    76  74  93 CALM      29.95S
*BAY CITY      PTCLDY    77  77 100 CALM      29.94F
PALACIOS       MOCLDY    83  77  82 S8        29.93F HX  92
$$

TXZ229>234-239>247-311000-
TEXAS COASTAL BEND AND RIO GRANDE PLAINS

CITY           SKY/WX    TMP DP  RH WIND       PRES   REMARKS
VICTORIA       PTCLDY    78  75  90 SE5       29.94F
*BEEVILLE      PTCLDY    75  75 100 SE3       29.93F
ROCKPORT       PTCLDY    83  77  82 S6        29.92F HX  92
*PORT ARANSAS  PTCLDY    82  77  83 S10       29.92S HX  91
*PORT LAVACA   PTCLDY    76  75  95 SE3       29.93F
*INGLESIDE     MOCLDY    83  78  85 SE7       29.92S HX  92
CORPUS CHRISTI PTCLDY    78  76  93 CALM      29.92F
CORPUS NAS     PTCLDY    83  79  88 S8        29.92S HX  94
*ROBSTOWN      MOCLDY    79  77  94 SE5       29.92F
ALICE          PTCLDY    76  75  97 CALM      29.92F
KINGSVILLE NAS MOCLDY    76  76 100 CALM      29.92S
COTULLA        PTCLDY    78  72  81 SE7       29.93F
*FAITH RANCH   MOCLDY    79  72  78 SE9       29.94F
LAREDO         MOCLDY    81  75  81 SE7       29.94F
$$

TXZ248>255-311000-
DEEP SOUTH TEXAS

CITY           SKY/WX    TMP DP  RH WIND       PRES   REMARKS
BROWNSVILLE    PTCLDY    79  78  97 CALM      29.91S
PORT ISABEL    CLEAR     81  75  82 SE9       29.91S
*SOUTH PADRE     N/A     81  79  94 SE8       29.91S
HARLINGEN      CLEAR     78  77  96 SE3       29.90F
*HEBBRONVILLE  MOCLDY    79  75  87 SE6       29.95S
MCALLEN        PTCLDY    80  78  94 E7        29.91F
*WESLACO       NOT AVBL
FALFURRIAS     PTCLDY    68  66  92 CALM      29.92R
EDINBURG       CLEAR     80  76  89 E3        29.90F
*ZAPATA        CLOUDY    81  75  83 SE8       29.91S
$$

TXZ213>215-236>238-242>244-246-247-251-254-255-311000-
CMAN STATIONS

STATION/POSITION TIME  TEMP    WIND        PRES    WAVE
                       AIR SEA DIR/SP/G            HT/PER
                 (UTC) (F)     (DEG/KT/KT) (MB)    (FT/S)
SABINE PASS      0800   80 83  200/  4/  7 1014.9
SEA RIM ST PARK  0800   81     190/  9/ 11 1015.3
NORTH JETTY/GLS  0800   83 83  210/ 12/ 13   N/A
EAGLE POINT      0800   81 82  190/  5/  6 1014.3
MORGANS POINT    0800   81     160/  5/  7 1014.1
MISSION/ARANSAS  0800   81     180/  8     1015.0
PORT O`CONNOR    0800          170/ 12/ 16   N/A
PORT ARANSAS     0800   83 83  140/ 16/ 18 1013.7
MALAQUITE BEACH  0800   84 83  150/ 15/ 17 1012.3
BAFFIN BAY       0800   82 80  160/  7/ 10 1013.0
PORT ISABEL      0800   80 82  150/  4/  8 1013.1
$$

GMZ080-GMZ150>470-311000-
OFFSHORE BUOY REPORTS

STATION/POSITION TIME  TEMP    WIND        PRES    WAVE
                       AIR SEA DIR/SP/G            HT/PER
                 (UTC) (F)     (DEG/KT/KT) (MB)    (FT/S)
20 E GALVESTON   0900   83 85  170/ 12/ 14 1014.2    4/ 8
90 E PT ARANSAS  0900   86 85  150/ 14/ 16 1014.2    4/ 8
35 NE PT MANSFLD 0800   84 85  150/ 14/ 17 1012.6    5/ 7
200 E PT ISABEL  0800   84 86  110/ 12/ 14 1013.9    4/ 8
$$


USA.gov is the U.S. government's official web portal to all federal, state and local government web resources and services.